Location: Unspecified
(0.0000°N, 0.0000°E)
Time: 15:06:49
(UTC+00:00)

Altair - Pass Details

Date: 19 March 2026
Orbit: 1502 x 1682 km, 47.2° (Epoch: 18 April)

Event Time Altitude Azimuth Distance (km) Brightness Sun altitude
Exits shadow 03:24:27 - 356° (N) 4,270 9.8 -40.9°
Reaches altitude 10° 03:27:26 10° 9° (N) 3,667 9.5 -40.1°
Maximum altitude 03:32:59 17° 47° (NE) 3,163 9.5 -38.7°
Drops below altitude 10° 03:38:36 10° 85° (E) 3,742 10.3 -37.3°
Sets 03:43:12 0° 103° (ESE) 4,764 11.0 -36.2°
